Regional Weather Roundup
Issued by NWS Charleston, SC

Current Version | Previous Version | Text Only | Print | Product List | Glossary Off
Versions: 1 2 3 4 5 6 7 8 9 10 11 12 13 14 15 16 17 18 19 20 21 22 23 24 25 26 27 28 29 30 31 32 33 34 35 36 37 38 39 40 41 42 43 44 45 46 47 48 49 50

000
ASUS42 KCHS 281625
RWRCHS

REGIONAL WEATHER ROUNDUP
NATIONAL WEATHER SERVICE CHARLESTON SC
1200 PM EDT MON JUL 28 2014

NOTE: "FAIR" INDICATES FEW OR NO CLOUDS BELOW 12,000 FEET WITH NO
SIGNIFICANT WEATHER AND/OR OBSTRUCTIONS TO VISIBILITY.

NOT ALL STATIONS ARE QUALITY CONTROLLED BY THE NATIONAL
WEATHER SERVICE. USE DATA WITH CAUTION...ESPECIALLY
DEWPOINT OBSERVATIONS.

SCZ027-030-031-034>040-042>050-281700-
...SOUTH CAROLINA...

CITY           SKY/WX    TMP DP  RH WIND       PRES   REMARKS
N CHARLESTON   PTSUNNY   91  77  63 W10       29.88S HX 104
WATERFRONT PRK   N/A     90 N/A N/A SW10G17     N/A
FORT JOHNSON   NOT AVBL
MOUNT PLEASANT FAIR      90  79  70 W7        29.87S HAZE    HX 105
JOHNS ISLAND   MOSUNNY   91  72  52 SW13G18   29.88S HX  98
PINOPOLIS        N/A     88  77  70 W14       29.80R HX 100
MONCKS CORNER    N/A     90  81  74 W6        29.87F HX 108
SUMMERVILLE    FAIR      90  79  70 W9G16     29.88F HX 105
BEAUFORT MCAS  MOSUNNY   92  75  57 NW14G22   29.89F HX 103
BEAUFORT ARPT  FAIR      93  77  59 W17       29.89S HX 107
HILTON HEAD IS MOSUNNY   93  79  62 SW10      29.91F HX 110
GEORGETOWN     NOT AVBL
WALTERBORO     PTSUNNY   90  72  55 W12G23    29.89S HX  96
ORANGEBURG     MOSUNNY   89  75  63 W12       29.87F HX  99
BARNWELL       FAIR      90  77  66 W12G18    29.89F HX 102
AIKEN          FAIR      90  73  58 W14G22    29.92S HX  98
MANNING        FAIR      90  77  66 SW7       29.86S HX 102
KINGSTREE      NOT AVBL
COLUMBIA       MOSUNNY   94  71  47 W12G22    29.85S HX 101
SUMTER         PTSUNNY   89  76  65 SW14      29.83F HX  99
FLORENCE       CLOUDY    86  75  69 SW9       29.84S HX  95
MYRTLE BEACH   PTSUNNY   90  75  62 SW10      29.84S HX 100
N MYRTLE BEACH MOSUNNY   90  75  61 W9        29.83F HX 100

$$

GAZ063-065-086>088-099>101-113>116-118-119-134-136>141-150-281700-
...GEORGIA...

CITY           SKY/WX    TMP DP  RH WIND       PRES   REMARKS
SAVANNAH ARPT  MOSUNNY   93  74  53 W17G29    29.91F HX 103
HUNTER AAF     SUNNY     93  77  58 W13G20    29.90F HX 106
FORT STEWART   MOSUNNY   93  73  52 W17G23    29.92F HX 102
STATESBORO     NOT AVBL
SYLVANIA       PTSUNNY   90  80  71 W8G17     29.91F HX 107
CLAXTON        FAIR      93  77  59 W10G22    29.92S HX 107
THOMSON        MOSUNNY   91  80  68 W10       29.94S HX 109
AUGUSTA-BUSH   SUNNY     90  75  61 SW12      29.88S HX 100
AUGUSTA-DANIEL SUNNY     90  72  55 W10G18    29.90S HX  97
SWAINSBORO     CLOUDY    93  81  66 W13G18    29.93S HX 113
VIDALIA          N/A     93  73  52 W9G18     29.93F HX 102
ALMA           NOT AVBL
WAYCROSS       MOSUNNY   97  78  54 W14G20    29.95F HX 114
JESUP          NOT AVBL
BRUNSWICK      MOSUNNY   93  73  52 W8G20     29.95F HX 102
SAINT SIMONS   SUNNY     91  76  61 W12       29.95F HX 103

$$

SCZ027-028-034-036>038-045-046-048>050-GAZ119-141-281700-
...LAKE AND SUPPLEMENTAL COASTAL OBSERVATIONS...

STATION/POSITION TIME  TEMP    WIND        PRES    WAVE   SWELL
                       AIR SEA DIR/SP/G            HT/PER HT/PER/DIR
                 (UTC) (F)     (DEG/KT/KT) (MB)    (FT/S) (FT/S/D)
UPR LAKE MARION  NOT AVBL
WINYAH BAY       1600   86     250/  9     1011.0S
LAKE MURRAY      1500   86     260/  9/ 14 1010.2F
ACE BASIN NERRS  1600   90     260/  4     1012.0S
FORT PULASKI     1600   91     240/ 11/ 15 1013.1F
SAPELO ISLAND    1600   90     260/ 12     1015.0S

$$

ANZ835-935-AMZ111-154-330-350-352-354-374-450-454-472-281700-
...C-MAN AND BUOY OBSERVATIONS...

STATION/POSITION TIME  TEMP    WIND        PRES    WAVE   SWELL
                       AIR SEA DIR/SP/G            HT/PER HT/PER/DIR
                 (UTC) (F)     (DEG/KT/KT) (MB)    (FT/S) (FT/S/D)
FOLLY BEACH CMAN 1600   87     220/ 17/ 19 1012.0F
BUOY 41004       1600   84 83  230/ 17/ 19 1011.0F   4/ 5   2/10
BUOY 41008       1600   85 85  240/ 12/ 14 1013.9R   3/ 4   2/120/ 9
5E ST. MARYS GA  1600      85                N/A     2/11
FRYING PAN BUOY  NOT AVBL
BUOY 41025       1600          VRB 17/ 21  1008.5R   5/ 7   2/200/ 7
CAPE LOOKOUT NC  1600   83     240/ 10/ 13 1009.6R
BUOY 41002       1520   82 81  240/ 16/ 19 1014.7F   6/ 7
BUOY 41010       1600   84 84  260/ 14/ 16 1017.5F   3/ 5   2/110/ 8
BUOY 41012       NOT AVBL
ST AUGUSTINE FL  1600   88     270/ 10/ 14 1016.7F
CAPERS NEARSHORE 1500   85     250/ 16/ 17   N/A
FRIPP NEARSHORE  NOT AVBL


$$



USA.gov is the U.S. government's official web portal to all federal, state and local government web resources and services.